Grand Junction, CO

3:47 AM MST on November 13, 2019 (GMT -0700)
Walker

Weather History for KGJT - September, 2019

Change the Weather History Date:

Sunday, September 29, 2019

  Actual Average Record
Temperature  
Mean Temperature 74 °F 60 °F  
Max Temperature 82 °F 74 °F 89 °F (1989)
Min Temperature 66 °F 47 °F 32 °F (1999)
Degree Days  
Heating Degree Days 0 5  
Month to date heating degree days 30 65  
Since 1 July heating degree days 30 68  
Cooling Degree Days 9 1  
Month to date cooling degree days 166 102  
Year to date cooling degree days 1287 1121  
Growing Degree Days 24 (Base 50)    
Moisture  
Dew Point 35 °F    
Average Humidity 29    
Maximum Humidity 40    
Minimum Humidity 18    
Precipitation  
Precipitation 0.00 in 0.04 in 1.02 in (1949)
Month to date precipitation 0.26 1.15  
Year to date precipitation 7.12 7.00  
Snow  
Snow 0.00 in 0.00 in T in (2002)
Month to date snowfall 0.0 0.0  
Since 1 July snowfall 0.0 0.0  
Since 1 September snowfall 0.0 0.0  
Snow Depth 0.00 in    
Sea Level Pressure  
Sea Level Pressure 29.49 in    
Wind  
Wind Speed 22 mph (South)    
Max Wind Speed 38 mph    
Max Gust Speed 53 mph    
Visibility 10 miles    
Events      
T = Trace of Precipitation, MM = Missing Value Source: NWS Daily Summary

Daily Weather History Graph

Daily Weather History Graph

Search for Another Location

Airport or City:

Astronomy

Sep. 29, 2019 Rise Set
Actual Time 7:08 AM MDT 7:00 PM MDT
Civil Twilight 6:41 AM MDT 7:26 PM MDT
Nautical Twilight 6:10 AM MDT 7:57 PM MDT
Astronomical Twilight 5:39 AM MDT 8:29 PM MDT
Moon 8:02 AM MDT (9/29) 8:02 PM MDT (9/29)
Length of Visible Light 12h 45m
Length of Day
11h 52m
New Moon, 1% of the Moon is Illuminated
Sep 29
New Moon
Oct 5
First Quarter
Oct 13
Full
Oct 21
Last Quarter
Oct 27
New

Hourly Weather History & Observations

Time (MDT) Temp. Dew Point Humidity Pressure Visibility Wind Dir Wind Speed Gust Speed Precip Events Conditions
12:53 AM 72.0 °F 37.9 °F 29% 29.46 in 10.0 mi South 19.6 mph 31.1 mph N/A   Clear
1:53 AM 69.1 °F 39.0 °F 33% 29.47 in 10.0 mi SE 13.8 mph 24.2 mph N/A   Clear
2:53 AM 69.1 °F 37.9 °F 32% 29.48 in 10.0 mi South 21.9 mph 31.1 mph N/A   Clear
3:53 AM 68.0 °F 39.0 °F 35% 29.50 in 10.0 mi SSE 17.3 mph 28.8 mph N/A   Clear
4:53 AM 66.9 °F 41.0 °F 39% 29.50 in 10.0 mi SSE 17.3 mph - N/A   Clear
5:53 AM 66.9 °F 41.0 °F 39% 29.50 in 10.0 mi SE 15.0 mph - N/A   Partly Cloudy
6:53 AM 66.9 °F 41.0 °F 39% 29.51 in 10.0 mi SSE 15.0 mph - N/A   Partly Cloudy
7:53 AM 66.9 °F 39.9 °F 37% 29.52 in 10.0 mi SSE 16.1 mph 25.3 mph N/A   Partly Cloudy
9:53 AM 73.0 °F 39.0 °F 29% 29.53 in 10.0 mi South 23.0 mph 35.7 mph N/A   Clear
10:53 AM 75.0 °F 37.9 °F 26% 29.52 in 10.0 mi SSW 25.3 mph 35.7 mph N/A   Partly Cloudy
11:53 AM 75.0 °F 36.0 °F 24% 29.51 in 10.0 mi SSW 26.5 mph 43.7 mph N/A   Mostly Cloudy
12:53 PM 78.1 °F 35.1 °F 21% 29.49 in 10.0 mi South 27.6 mph 42.6 mph N/A   Scattered Clouds
1:53 PM 80.1 °F 34.0 °F 19% 29.47 in 10.0 mi South 25.3 mph 43.7 mph N/A   Clear
2:53 PM 81.0 °F 34.0 °F 18% 29.45 in 10.0 mi South 27.6 mph 41.4 mph N/A   Clear
3:53 PM 80.1 °F 34.0 °F 19% 29.44 in 10.0 mi South 31.1 mph 46.0 mph N/A   Clear
4:53 PM 79.0 °F 32.0 °F 18% 29.45 in 10.0 mi South 24.2 mph 47.2 mph N/A   Clear
5:53 PM 77.0 °F 30.9 °F 19% 29.45 in 10.0 mi South 25.3 mph 35.7 mph N/A   Scattered Clouds
6:53 PM 75.9 °F 30.0 °F 19% 29.45 in 10.0 mi SSW 16.1 mph 31.1 mph N/A   Scattered Clouds
7:53 PM 75.9 °F 28.0 °F 17% 29.46 in 10.0 mi SSW 18.4 mph 34.5 mph N/A   Clear
8:53 PM 73.9 °F 30.0 °F 20% 29.48 in 10.0 mi South 24.2 mph 36.8 mph N/A   Clear
9:53 PM 73.0 °F 30.9 °F 21% 29.50 in 10.0 mi SW 23.0 mph 34.5 mph N/A   Clear
10:53 PM 72.0 °F 28.9 °F 20% 29.51 in 10.0 mi SSW 24.2 mph 49.5 mph N/A   Clear
11:53 PM 70.0 °F 28.0 °F 21% 29.52 in 10.0 mi South 28.8 mph 42.6 mph N/A   Clear